Simultaneous Nadir Overpasses (SNOs) Predictions

Prediction of SNOs between GOES-17 and NOAA-19 Satellite Orbit:

Table of predicted SNOs for the next 14.0 days since TLE Epoch: 4/4/2025
Index Date Time (GOES-17) GOES-17 Lat,Lon NOAA-19 Lat,Lon Distance(km) Time Diff (sec)
1 04/06/2025 04:56:30 -0.03,-104.38 -0.99,-108.51 472.06 80
2 04/07/2025 04:43:55 -0.03,-104.38 -0.30,-105.45 123.38 80
3 04/08/2025 04:33:59 -0.03,-104.38 0.40,-102.39 225.58 80
4 04/10/2025 16:52:37 0.02,-104.42 0.58,-106.85 276.64 80
5 04/11/2025 16:37:22 0.02,-104.42 -0.15,-103.79 72.87 80
6 04/12/2025 16:24:45 0.02,-104.43 -0.82,-100.73 422.24 80
7 04/14/2025 04:58:48 -0.02,-104.39 -0.93,-108.26 442.01 80
8 04/15/2025 04:46:12 -0.02,-104.39 -0.21,-105.21 92.82 80
9 04/16/2025 04:30:57 -0.02,-104.40 0.51,-102.15 256.32 80
10 04/18/2025 16:49:30 0.02,-104.43 0.52,-106.58 245.30 80
